Weather History for Eau Claire, WI

Change the Weather History Date:

Thursday, December 1, 2011

  Actual Average Record
Temperature  
Mean Temperature 25 °F 24 °F  
Max Temperature 36 °F 33 °F 63 °F (1998)
Min Temperature 14 °F 16 °F -18 °F (1893)
Degree Days  
Heating Degree Days 40 41  
Month to date heating degree days 40 41  
Since 1 July heating degree days 1548 1787  
Cooling Degree Days 0 0  
Month to date cooling degree days 0 0  
Year to date cooling degree days 655 579  
Moisture  
Dew Point 25 °F    
Average Humidity 76    
Maximum Humidity 92    
Minimum Humidity 59    
Precipitation  
Precipitation 0.06 in 0.04 in 1.00 in (1945)
Month to date precipitation 0.06 0.04  
Year to date precipitation 30.76 30.02  
Snow  
Snow 0.50 in 0.30 in 6.40 in (1985)
Month to date snowfall 0.5 0.3  
Since 1 July snowfall 1.7 6.6  
Snow Depth T in    
Sea Level Pressure  
Sea Level Pressure 30.24 in    
Wind  
Wind Speed 6 mph (North)    
Max Wind Speed 14 mph    
Max Gust Speed 20 mph    
Visibility 6 miles    
Events Snow    
T = Trace of Precipitation, MM = Missing Value Source: NWS Daily Summary

Daily Weather History Graph

Daily Weather History Graph

Search for Another Location

Airport:

Trip Planner

Search our weather history database for the weather conditions in past years. The results will help you decide how hot, cold, wet, or windy it might be!

Date:

Astronomy

Dec. 01, 2011 Rise Set
Actual Time 7:23 AM CST 4:26 PM CST
Civil Twilight 6:50 AM CST 4:59 PM CST
Nautical Twilight 6:13 AM CST 5:35 PM CST
Astronomical Twilight 5:38 AM CST 6:11 PM CST
Moon 11:57 AM CST (12/1) 11:37 PM CST (12/1)
Length of Visible Light 10h 09m
Length of Day
9h 03m
Waxing Crescent, 43% of the Moon is Illuminated
Dec 1
Waxing Crescent
Dec 2
First Quarter
Dec 10
Full
Dec 17
Last Quarter
Dec 24
New

Hourly Weather History & Observations

Time (CST) Temp. Windchill Dew Point Humidity Pressure Visibility Wind Dir Wind Speed Gust Speed Precip Events Conditions
12:56 AM 35.1 °F 26.9 °F 26.1 °F 70% 30.09 in 10.0 mi NNE 11.5 mph - N/A   Overcast
1:56 AM 32.0 °F 27.5 °F 30.9 °F 96% 30.11 in 2.5 mi NE 4.6 mph - 0.00 in Snow Light Snow
2:04 AM 32.0 °F 26.4 °F 30.2 °F 93% 30.09 in 3.0 mi NE 5.8 mph - 0.00 in Snow Light Snow
2:19 AM 32.0 °F 28.7 °F 30.2 °F 93% 30.09 in 2.5 mi North 3.5 mph - 0.00 in Snow Light Snow
2:28 AM 32.0 °F 27.5 °F 30.2 °F 93% 30.09 in 2.5 mi NNE 4.6 mph - 0.00 in Snow Light Snow
2:56 AM 32.0 °F 28.7 °F 30.2 °F 93% 30.10 in 2.0 mi North 3.5 mph - N/A Snow Light Snow
3:09 AM 32.0 °F 28.7 °F 30.2 °F 93% 30.10 in 2.0 mi North 3.5 mph - 0.00 in Snow Light Snow
3:34 AM 32.0 °F 28.7 °F 30.2 °F 93% 30.11 in 1.8 mi North 3.5 mph - 0.01 in Snow Light Snow
3:41 AM 32.0 °F 26.4 °F 30.2 °F 93% 30.11 in 2.0 mi North 5.8 mph - 0.01 in Snow Light Snow
3:56 AM 32.0 °F 27.5 °F 30.9 °F 96% 30.15 in 2.0 mi North 4.6 mph - 0.01 in Snow Light Snow
4:04 AM 32.0 °F 27.5 °F 30.2 °F 93% 30.12 in 1.5 mi North 4.6 mph - 0.01 in Snow Light Snow
4:18 AM 32.0 °F 26.4 °F 30.2 °F 93% 30.13 in 2.0 mi North 5.8 mph - 0.01 in Snow Light Snow
4:27 AM 32.0 °F 25.6 °F 30.2 °F 93% 30.13 in 2.0 mi North 6.9 mph - 0.01 in Snow Light Snow
4:48 AM 32.0 °F 25.6 °F 30.2 °F 93% 30.14 in 2.0 mi North 6.9 mph - 0.02 in Snow Light Snow
4:56 AM 32.0 °F 24.8 °F 30.0 °F 92% 30.18 in 2.0 mi North 8.1 mph - 0.02 in Snow Light Snow
5:18 AM 32.0 °F 24.8 °F 30.2 °F 93% 30.16 in 3.0 mi North 8.1 mph - 0.01 in Snow Light Snow
5:36 AM 32.0 °F 25.6 °F 30.2 °F 93% 30.17 in 3.0 mi North 6.9 mph - 0.01 in Snow Light Snow
5:56 AM 32.0 °F 25.6 °F 30.0 °F 92% 30.20 in 3.0 mi North 6.9 mph - 0.01 in Snow Light Snow
6:41 AM 32.0 °F 27.5 °F 30.2 °F 93% 30.20 in 4.0 mi North 4.6 mph - 0.00 in Snow Light Snow
6:50 AM 32.0 °F 24.8 °F 30.2 °F 93% 30.21 in 3.0 mi North 8.1 mph - 0.00 in Snow Light Snow
6:56 AM 32.0 °F 26.4 °F 30.0 °F 92% 30.24 in 3.0 mi North 5.8 mph - 0.00 in Snow Light Snow
7:03 AM 32.0 °F 26.4 °F 30.2 °F 93% 30.22 in 3.0 mi North 5.8 mph - 0.00 in Snow Light Snow
7:26 AM 32.0 °F 27.5 °F 30.2 °F 93% 30.23 in 9.0 mi North 4.6 mph - 0.01 in   Overcast
7:56 AM 32.0 °F 24.2 °F 28.4 °F 87% 30.24 in 10.0 mi North 9.2 mph - N/A   Overcast
8:56 AM 32.0 °F 24.8 °F 28.0 °F 85% 30.31 in 10.0 mi North 8.1 mph - N/A   Overcast
9:56 AM 32.0 °F 24.2 °F 27.0 °F 82% 30.33 in 10.0 mi NNE 9.2 mph - N/A   Overcast
10:56 AM 32.0 °F 24.2 °F 27.0 °F 82% 30.35 in 10.0 mi NNE 9.2 mph 19.6 mph N/A   Overcast
11:54 AM 33.8 °F 25.3 °F 24.8 °F 70% 30.32 in 10.0 mi North 11.5 mph 18.4 mph N/A   Scattered Clouds
11:56 AM 33.1 °F 23.9 °F 24.1 °F 70% 30.35 in 10.0 mi NNE 12.7 mph 18.4 mph N/A   Scattered Clouds
12:12 PM 33.8 °F 25.3 °F 24.8 °F 70% 30.32 in 10.0 mi NNE 11.5 mph - N/A   Mostly Cloudy
12:56 PM 32.0 °F 24.8 °F 25.0 °F 75% 30.36 in 10.0 mi North 8.1 mph - N/A   Overcast
1:46 PM 32.0 °F 24.8 °F 23.0 °F 69% 30.33 in 10.0 mi North 8.1 mph - N/A   Scattered Clouds
1:56 PM 32.0 °F 24.8 °F 24.1 °F 73% 30.36 in 10.0 mi North 8.1 mph - N/A   Partly Cloudy
2:56 PM 30.9 °F 24.3 °F 19.0 °F 61% 30.38 in 10.0 mi NNW 6.9 mph - N/A   Clear
3:56 PM 28.9 °F 21.9 °F 19.0 °F 67% 30.39 in 10.0 mi NNW 6.9 mph - N/A   Clear
4:56 PM 27.0 °F 19.5 °F 16.0 °F 63% 30.40 in 10.0 mi NNW 6.9 mph - N/A   Clear
5:56 PM 25.0 °F 17.1 °F 16.0 °F 69% 30.41 in 10.0 mi NW 6.9 mph - N/A   Clear
6:56 PM 23.0 °F 15.8 °F 14.0 °F 68% 30.41 in 10.0 mi NW 5.8 mph - N/A   Clear
8:56 PM 19.4 °F 11.5 °F 10.4 °F 68% 30.38 in 10.0 mi NW 5.8 mph - N/A   Clear
9:56 PM 19.9 °F - 10.0 °F 65% 30.43 in 10.0 mi Calm Calm - N/A   Clear
10:56 PM 17.6 °F - 10.4 °F 73% 30.39 in 10.0 mi Calm Calm - N/A   Clear
11:56 PM 14.0 °F - 8.1 °F 77% 30.44 in 10.0 mi Calm Calm - N/A   Clear